, AK

(GMT )
Shemya

Weather History for PASY - February, 2014

Change the Weather History Date:

Thursday, February 20, 2014

  Actual Average Record
Temperature  
Mean Temperature 32 °F -  
Max Temperature 34 °F 32 °F 42 °F (2003)
Min Temperature 30 °F 26 °F 12 °F (1981)
Degree Days  
Heating Degree Days 33    
Moisture  
Dew Point 29 °F    
Average Humidity 89    
Maximum Humidity 100    
Minimum Humidity 43    
Precipitation  
Precipitation 0.40 in - - ()
Sea Level Pressure  
Sea Level Pressure 29.20 in    
Wind  
Wind Speed 27 mph (East)    
Max Wind Speed 54 mph    
Max Gust Speed 61 mph    
Visibility 5 miles    
Events Snow    
Averages and records for this station are not official NWS values.
T = Trace of Precipitation, MM = Missing Value Source: NWS Daily Summary

Daily Weather History Graph

Daily Weather History Graph

Search for Another Location

Airport or City:

Trip Planner

Search our weather history database for the weather conditions in past years. The results will help you decide how hot, cold, wet, or windy it might be!

Date:

Astronomy

Feb. 19, 2014 Rise Set
Actual Time 9:31 AM HST 7:44 PM HST
Civil Twilight 8:56 AM HST 8:19 PM HST
Nautical Twilight 8:16 AM HST 8:59 PM HST
Astronomical Twilight 7:36 AM HST 9:39 PM HST
Moon 1:40 AM HST (2/20) 11:33 AM HST (2/20)
Length of Visible Light 11h 23m
Length of Day
10h 13m
Waning Gibbous, 69% of the Moon is Illuminated
Feb 20
Waning Gibbous
Feb 22
Last Quarter
Feb 28
New
Mar 8
First Quarter
Mar 16
Full

Hourly Weather History & Observations

Time (HST) Temp. Windchill Dew Point Humidity Pressure Visibility Wind Dir Wind Speed Gust Speed Precip Events Conditions
12:09 AM 32.0 °F 16.0 °F 32.0 °F 100% 29.13 in 0.8 mi ENE 39.1 mph 49.5 mph N/A Snow Light Snow
12:23 AM 32.0 °F 15.8 °F 32.0 °F 100% 29.14 in 0.8 mi ENE 40.3 mph 50.6 mph N/A Snow Light Snow
12:34 AM 32.0 °F 16.5 °F 32.0 °F 100% 29.14 in 1.0 mi ENE 35.7 mph 47.2 mph N/A Snow Light Snow
12:54 AM 32.0 °F 16.5 °F 32.0 °F 100% 29.14 in 1.0 mi ENE 35.7 mph 48.3 mph N/A Snow Light Snow
12:56 AM 32.0 °F 16.5 °F 32.0 °F 100% 29.15 in 1.0 mi ENE 35.7 mph 48.3 mph N/A Snow Light Snow
1:07 AM 32.0 °F 16.3 °F 32.0 °F 100% 29.15 in 1.2 mi ENE 36.8 mph 49.5 mph N/A Snow Light Snow
1:14 AM 32.0 °F 15.4 °F 32.0 °F 100% 29.14 in 0.8 mi ENE 42.6 mph 48.3 mph N/A Snow Light Snow
1:31 AM 32.0 °F 16.3 °F 32.0 °F 100% 29.15 in 1.0 mi ENE 36.8 mph 47.2 mph N/A Snow Light Snow
1:43 AM 32.0 °F 15.6 °F 32.0 °F 100% 29.13 in 0.8 mi ENE 41.4 mph 49.5 mph N/A Snow Light Snow
1:53 AM 32.0 °F 15.8 °F 32.0 °F 100% 29.15 in 0.8 mi ENE 40.3 mph 55.2 mph N/A Snow Light Snow
1:56 AM 32.0 °F 16.7 °F 32.0 °F 100% 29.16 in 0.8 mi ENE 34.5 mph 55.2 mph N/A Snow Light Snow
2:04 AM 32.0 °F 17.0 °F 32.0 °F 100% 29.15 in 1.0 mi ENE 33.4 mph 44.9 mph N/A Snow Light Snow
2:28 AM 32.0 °F 15.8 °F 32.0 °F 100% 29.13 in 1.0 mi ENE 40.3 mph 44.9 mph N/A Snow Light Snow
2:45 AM 32.0 °F 16.7 °F 32.0 °F 100% 29.15 in 0.8 mi ENE 34.5 mph 49.5 mph N/A Snow Light Snow
2:56 AM 32.0 °F 18.1 °F 32.0 °F 100% 29.16 in 0.8 mi East 27.6 mph 38.0 mph N/A Snow Light Snow
3:07 AM 32.0 °F 18.1 °F 32.0 °F 100% 29.14 in 1.0 mi ENE 27.6 mph 40.3 mph N/A Snow Light Snow
3:11 AM 32.0 °F 17.9 °F 32.0 °F 100% 29.12 in 1.5 mi ENE 28.8 mph 35.7 mph N/A Snow Light Snow
3:20 AM 32.0 °F 14.4 °F 32.0 °F 100% 29.09 in 1.0 mi NE 49.5 mph 56.4 mph N/A Snow Light Snow
3:24 AM 32.0 °F 13.9 °F 32.0 °F 100% 29.09 in 0.8 mi NE 54.1 mph 61.0 mph N/A Snow Light Snow
3:35 AM 32.0 °F 17.6 °F 32.0 °F 100% 29.12 in 1.2 mi East 29.9 mph 58.7 mph N/A   Overcast
3:37 AM 32.0 °F 18.4 °F 32.0 °F 100% 29.13 in - ESE 26.5 mph 56.4 mph N/A   Mostly Cloudy
3:39 AM 32.0 °F 19.2 °F 32.0 °F 100% 29.14 in - ESE 23.0 mph 48.3 mph N/A Snow Light Snow
3:56 AM 32.0 °F 18.9 °F 32.0 °F 100% 29.15 in 7.0 mi ENE 24.2 mph 31.1 mph N/A Snow Light Snow
4:00 AM 32.0 °F 19.2 °F 32.0 °F 100% 29.14 in - ENE 23.0 mph 31.1 mph N/A Snow Light Snow
4:02 AM 32.0 °F 20.8 °F 32.0 °F 100% 29.14 in 1.5 mi ENE 17.3 mph 31.1 mph N/A Snow Light Snow
4:04 AM 32.0 °F 22.5 °F 32.0 °F 100% 29.13 in 1.0 mi ENE 12.7 mph 31.1 mph N/A Snow Light Snow
4:15 AM 32.0 °F 21.6 °F 30.2 °F 93% 29.14 in 1.5 mi East 15.0 mph - N/A Snow Light Snow
4:17 AM 32.0 °F 20.5 °F 30.2 °F 93% 29.15 in 1.8 mi East 18.4 mph - N/A Snow Light Snow
4:24 AM 32.0 °F 20.1 °F 32.0 °F 100% 29.15 in 2.5 mi East 19.6 mph - N/A Snow Light Snow
4:29 AM 32.0 °F 20.8 °F 32.0 °F 100% 29.15 in - ENE 17.3 mph - N/A Snow Light Snow
4:38 AM 32.0 °F 22.5 °F 32.0 °F 100% 29.14 in 1.8 mi ENE 12.7 mph 24.2 mph N/A Snow Light Snow
4:45 AM 30.2 °F 20.2 °F 30.2 °F 100% 29.14 in 1.5 mi East 12.7 mph - N/A Snow Light Snow
4:47 AM 30.2 °F 19.8 °F 30.2 °F 100% 29.14 in - East 13.8 mph - N/A Snow Light Snow
4:51 AM 30.2 °F 20.2 °F 30.2 °F 100% 29.15 in 4.0 mi East 12.7 mph - N/A Snow Light Snow
4:56 AM 30.9 °F 21.2 °F 30.9 °F 100% 29.15 in 7.0 mi East 12.7 mph - N/A Snow Light Snow
5:12 AM 32.0 °F 24.2 °F 32.0 °F 100% 29.14 in 10.0 mi ENE 9.2 mph - N/A   Overcast
5:19 AM 32.0 °F 28.7 °F 32.0 °F 100% 29.13 in 10.0 mi East 3.5 mph - N/A   Overcast
5:47 AM 32.0 °F 21.6 °F 30.2 °F 93% 29.15 in 10.0 mi SE 15.0 mph - N/A   Overcast
5:56 AM 32.0 °F 22.5 °F 32.0 °F 100% 29.15 in 10.0 mi ESE 12.7 mph - N/A   Overcast
6:05 AM 32.0 °F 23.0 °F 32.0 °F 100% 29.15 in 10.0 mi East 11.5 mph - N/A   Overcast
6:56 AM 32.0 °F 20.8 °F 30.9 °F 96% 29.16 in 10.0 mi SE 17.3 mph - N/A   Mostly Cloudy
7:24 AM 30.2 °F 19.8 °F 26.6 °F 86% 29.17 in 10.0 mi SE 13.8 mph - N/A   Scattered Clouds
7:56 AM 32.0 °F 21.2 °F 26.1 °F 79% 29.18 in 10.0 mi SE 16.1 mph - N/A   Scattered Clouds
8:12 AM 32.0 °F 21.2 °F 24.8 °F 75% 29.18 in 10.0 mi SE 16.1 mph - N/A   Mostly Cloudy
8:25 AM 32.0 °F 20.8 °F 24.8 °F 75% 29.18 in 10.0 mi SE 17.3 mph - N/A   Mostly Cloudy
8:56 AM 32.0 °F 22.1 °F 25.0 °F 75% 29.19 in 10.0 mi ESE 13.8 mph - N/A   Mostly Cloudy
9:56 AM 32.0 °F 20.8 °F 24.1 °F 73% 29.21 in 10.0 mi SE 17.3 mph - N/A   Overcast
10:56 AM 32.0 °F 20.5 °F 27.0 °F 82% 29.22 in 10.0 mi SE 18.4 mph - N/A   Mostly Cloudy
11:06 AM 32.0 °F 20.5 °F 26.6 °F 80% 29.22 in 6.2 mi ESE 18.4 mph - N/A Snow Light Snow
11:24 AM 33.8 °F 22.5 °F 24.8 °F 70% 29.22 in 10.0 mi ESE 19.6 mph - N/A   Mostly Cloudy
11:56 AM 33.1 °F 21.2 °F 24.1 °F 70% 29.24 in 10.0 mi SE 20.7 mph - N/A   Overcast
12:56 PM 34.0 °F 23.0 °F 21.9 °F 61% 29.25 in 10.0 mi SE 18.4 mph - N/A   Mostly Cloudy
1:56 PM 33.1 °F 21.5 °F 19.0 °F 56% 29.26 in 10.0 mi ESE 19.6 mph - N/A   Scattered Clouds
2:56 PM 33.1 °F 21.5 °F 19.9 °F 59% 29.26 in 10.0 mi SE 19.6 mph - N/A   Overcast
3:56 PM 33.1 °F 22.6 °F 19.9 °F 59% 29.27 in 10.0 mi SE 16.1 mph - N/A   Overcast
4:56 PM 33.1 °F 22.2 °F 21.0 °F 61% 29.27 in 10.0 mi ESE 17.3 mph - N/A   Overcast
5:56 PM 33.1 °F 21.9 °F 21.0 °F 61% 29.28 in 10.0 mi ESE 18.4 mph - N/A   Overcast
6:27 PM 30.2 °F 18.1 °F 23.0 °F 75% 29.29 in 2.5 mi SE 18.4 mph - N/A Snow Light Snow
6:37 PM 30.2 °F 18.5 °F 24.8 °F 80% 29.28 in 1.8 mi SE 17.3 mph - N/A Snow Light Snow
6:48 PM 30.2 °F 18.9 °F 26.6 °F 86% 29.28 in 2.5 mi SE 16.1 mph - N/A Snow Light Snow
6:53 PM 30.2 °F 19.3 °F 28.4 °F 93% 29.28 in - SE 15.0 mph - N/A Snow Light Snow
6:56 PM 30.9 °F 19.1 °F 28.0 °F 89% 29.29 in 3.0 mi SE 18.4 mph - N/A Snow Light Snow
7:05 PM 30.2 °F 19.3 °F 28.4 °F 93% 29.29 in 2.5 mi ESE 15.0 mph - N/A Snow Light Snow
7:14 PM 30.2 °F 19.3 °F 28.4 °F 93% 29.29 in 1.5 mi ESE 15.0 mph - N/A Snow Light Snow
7:20 PM 30.2 °F 19.8 °F 28.4 °F 93% 29.29 in - ESE 13.8 mph - N/A Snow Light Snow
7:26 PM 30.2 °F 18.9 °F 28.4 °F 93% 29.29 in 2.5 mi ESE 16.1 mph - N/A Snow Light Snow
7:30 PM 30.2 °F 18.9 °F 28.4 °F 93% 29.29 in 2.5 mi ESE 16.1 mph - N/A Snow Light Snow
7:37 PM 30.2 °F 18.5 °F 28.4 °F 93% 29.29 in 4.0 mi ESE 17.3 mph - N/A Snow Light Snow
7:45 PM 30.2 °F 18.1 °F 28.4 °F 93% 29.30 in - ESE 18.4 mph - N/A Snow Light Snow
7:56 PM 30.9 °F 20.7 °F 28.9 °F 92% 29.31 in 4.0 mi ESE 13.8 mph - N/A Snow Light Snow
8:28 PM 30.2 °F 18.5 °F 28.4 °F 93% 29.30 in 5.0 mi East 17.3 mph - N/A Snow Light Snow
8:48 PM 30.2 °F 19.8 °F 28.4 °F 93% 29.30 in 6.2 mi ENE 13.8 mph - N/A   Overcast
8:56 PM 32.0 °F 21.6 °F 28.9 °F 88% 29.31 in 10.0 mi East 15.0 mph - N/A   Overcast
9:56 PM 33.1 °F 20.9 °F 21.9 °F 64% 29.31 in 10.0 mi East 21.9 mph - N/A   Overcast
10:56 PM 33.1 °F 21.2 °F 21.9 °F 64% 29.32 in 10.0 mi East 20.7 mph - N/A   Overcast
11:56 PM 32.0 °F 19.2 °F 21.9 °F 66% 29.32 in 10.0 mi East 23.0 mph - N/A   Scattered Clouds